Wind_Speed
44 44 45 46 46 46 47 49 50 50 50 51 51 51 52 53 54 55 56 57 58 58 58 59 60 61 62 62 62 61 60 58 57 56 56 55 55 56 57 58 60 61 63 64 66 67 67 66 64 61 56 52 48 43 39 36 33 30 27 24 22 20 19 18 18 19 20 20 21 22 23 25 25 27 28 28 28 30 32 33 34 37 38 37 38 40 43 45
45 46 47 47 48 48 49 50 51 52 52 52 53 53 54 55 56 57 58 59 60 60 60 61 61 63 63 62 61 60 58 57 56 56 55 55 56 57 59 60 62 63 65 66 66 64 61 57 52 48 43 39 35 32 29 26 24 22 19 18 17 16 16 16 17 19 21 22 23 24 26 27 28 30 30 30 32 33 34 36 37 39 41 41 42 44 46 47
46 46 47 48 48 48 49 51 52 53 53 54 55 55 57 58 59 60 61 61 61 62 62 63 63 63 63 61 59 57 56 56 55 55 55 56 58 59 61 62 64 65 64 62 59 54 48 43 38 34 31 28 25 22 20 18 17 16 15 15 15 15 16 18 19 21 23 24 25 27 29 29 30 32 32 32 35 36 37 39 41 42 44 44 45 46 48 49
46 47 47 48 48 49 50 51 52 53 54 55 56 57 58 59 60 61 62 63 63 64 64 63 62 61 60 58 56 55 54 54 54 55 57 58 59 61 62 63 63 60 56 51 45 39 34 30 26 23 21 19 17 15 14 14 14 14 15 15 16 17 18 20 22 24 26 27 28 30 31 32 33 34 34 34 37 40 41 42 44 46 46 47 47 48 49 51
47 48 49 49 50 50 51 52 53 54 55 55 57 58 60 60 61 62 63 63 63 62 61 59 58 57 56 55 54 53 53 54 55 57 58 60 61 62 61 58 53 47 41 36 31 26 22 19 17 15 14 13 12 12 12 13 14 15 16 17 18 19 21 23 25 27 29 30 31 33 34 34 35 37 37 36 39 43 46 46 47 48 48 50 51 51 52 53
48 49 50 51 51 52 53 53 54 55 56 57 58 59 60 61 61 61 60 58 57 56 54 54 53 53 53 52 52 53 53 55 57 58 60 60 59 55 50 44 38 32 27 23 20 16 14 12 11 11 10 11 11 12 14 15 16 17 19 20 21 23 24 26 28 29 31 32 34 36 37 37 38 41 40 39 41 46 50 50 50 50 50 52 54 55 55 56
48 49 50 51 52 53 54 54 55 55 56 56 57 57 57 57 55 54 52 51 50 50 50 50 50 50 51 51 52 53 55 57 58 58 56 52 47 41 34 29 24 19 16 13 12 10 9 9 9 9 10 12 13 14 16 18 19 20 21 23 24 26 28 30 30 32 33 35 37 40 41 40 41 44 45 43 45 49 52 54 53 53 54 55 57 58 59 60
46 47 48 49 50 51 52 52 52 52 52 52 52 52 51 50 49 48 47 47 47 47 48 48 49 49 50 52 53 55 56 55 53 48 43 37 31 26 21 17 13 10 8 7 8 8 8 9 10 11 12 14 16 17 19 20 22 23 25 26 27 28 31 33 34 35 37 38 41 44 45 43 43 46 48 48 50 53 54 56 56 56 58 59 60 61 62 63
41 42 43 44 45 46 46 46 47 47 47 47 47 47 46 45 45 44 44 45 45 46 47 48 49 50 52 53 53 52 49 44 38 33 27 22 18 14 11 9 7 6 5 6 7 8 9 11 12 14 15 17 19 21 22 24 25 27 28 29 30 32 34 36 37 38 39 41 43 47 49 47 47 48 51 54 55 56 58 58 59 60 62 64 64 65 66 67
37 38 39 40 41 42 43 43 43 44 44 43 43 43 42 42 42 43 43 44 45 46 47 49 50 50 50 48 44 39 34 29 23 19 15 12 9 7 6 5 5 6 6 7 9 10 12 13 15 16 18 20 22 24 26 27 28 30 31 33 34 35 37 38 40 41 42 44 46 50 53 51 51 51 54 58 60 60 61 63 63 64 65 67 68 69 69 70
36 37 38 39 39 40 40 40 40 40 40 40 40 40 40 41 41 42 43 44 45 47 47 47 46 43 38 33 29 25 21 17 13 10 8 5 5 4 4 4 5 6 8 10 12 13 15 16 18 19 21 23 24 26 29 30 32 34 35 36 37 38 41 43 43 44 45 47 49 53 57 57 55 56 57 61 63 63 65 67 68 68 69 71 72 73 73 74
35 36 36 36 37 37 37 37 37 37 37 38 38 39 40 41 42 43 44 44 44 43 41 37 33 28 24 20 17 15 12 8 6 4 3 2 2 3 4 6 7 9 11 13 14 16 18 19 21 23 24 26 28 30 32 34 35 37 39 40 41 41 45 48 48 49 49 51 53 55 60 62 61 61 62 64 66 67 69 71 72 73 74 75 76 77 77 78
32 33 33 34 34 35 35 35 36 36 36 37 38 39 40 40 41 41 40 38 35 31 27 23 19 15 12 10 9 6 4 2 1 1 1 2 4 6 7 9 11 13 14 16 18 19 21 22 24 26 28 30 32 34 36 38 40 42 44 45 46 46 47 51 52 53 53 54 56 58 61 65 67 67 68 69 71 73 74 75 77 78 79 80 80 81 82 82
30 31 32 33 33 33 34 34 35 35 36 36 37 37 37 36 34 32 29 25 22 18 14 11 9 6 4 3 2 1 1 1 2 3 5 6 8 9 10 12 14 16 18 19 21 23 24 26 28 30 32 34 36 38 40 42 43 45 48 49 51 52 53 54 56 58 58 59 60 62 64 67 70 72 73 75 76 78 79 81 82 83 84 85 85 86 86 87
30 31 31 31 32 32 32 32 32 32 32 32 31 30 28 26 23 20 17 14 11 9 6 5 4 4 4 4 3 4 4 4 5 6 8 9 11 12 14 15 17 19 21 23 24 26 28 30 32 34 36 38 40 42 44 45 47 49 51 53 54 56 58 59 61 62 63 65 66 67 69 71 74 76 78 79 81 82 84 86 87 88 89 90 91 91 91 92
28 28 28 28 28 28 27 27 26 26 25 24 22 20 18 15 12 10 8 7 7 7 7 7 7 6 6 5 5 4 5 6 7 9 10 12 13 15 17 19 21 23 25 27 29 30 32 34 36 38 39 41 43 45 47 49 51 52 54 57 58 59 62 65 66 67 68 69 71 73 74 75 78 80 82 84 85 87 88 90 91 92 93 94 95 95 96 96
23 23 23 22 21 21 20 19 18 17 16 15 14 12 11 9 9 9 9 9 9 9 8 7 6 5 5 4 4 5 6 8 9 11 13 15 17 19 21 23 25 27 29 31 33 34 36 37 39 41 43 45 47 49 51 53 55 57 59 61 63 64 65 67 70 73 73 74 76 78 80 80 82 84 86 88 89 91 92 94 94 95 96 96 97 97 98 98
17 17 16 16 15 14 13 12 11 11 10 10 10 10 11 11 11 11 11 10 9 8 6 5 3 3 3 3 4 6 8 10 12 14 16 18 20 22 24 27 29 30 33 34 36 38 40 41 43 45 47 49 52 53 55 58 59 62 63 65 68 70 71 71 73 76 79 80 81 83 85 86 87 88 90 91 92 93 94 95 96 97 97 97 98 98 99 100
12 12 12 12 12 12 11 11 12 12 12 12 12 12 12 11 11 10 9 8 7 5 3 2 2 2 4 5 7 9 11 13 15 18 20 22 24 26 28 30 32 34 36 38 40 42 44 46 48 50 52 54 56 58 60 62 64 66 68 69 71 74 76 77 77 79 81 83 85 87 88 89 90 90 92 93 94 94 95 96 97 97 98 98 99 100 101 102
10 11 11 12 12 13 13 13 14 14 14 14 13 13 12 11 10 9 8 6 5 3 1 1 3 5 7 9 11 13 15 17 19 21 23 25 27 30 31 33 36 38 40 42 44 46 48 50 53 54 56 58 60 63 65 67 68 70 72 74 75 76 79 80 80 81 82 83 85 87 90 91 91 90 92 94 94 95 96 97 97 97 98 99 100 101 102 103
14 14 14 14 14 15 14 14 14 13 13 13 12 11 10 10 8 7 5 4 3 1 3 4 7 9 11 13 15 16 19 21 22 24 26 29 31 33 35 37 39 42 44 46 48 51 53 55 57 59 61 63 65 67 68 70 72 73 75 76 77 78 79 82 82 82 82 83 84 87 90 93 93 92 93 95 96 96 97 97 98 98 99 99 100 101 102 103
18 18 18 18 18 17 17 16 15 14 13 12 11 10 9 7 6 4 3 3 3 4 6 8 10 12 14 16 18 20 22 24 26 28 30 33 35 37 39 42 44 46 48 50 52 55 57 59 61 63 65 66 68 69 70 71 73 74 75 76 77 78 79 81 83 85 84 84 85 87 89 93 95 94 93 95 95 95 96 95 96 96 96 97 97 99 99 101
21 21 21 20 20 19 18 17 16 14 13 11 10 8 7 6 5 3 4 5 6 7 9 11 13 15 17 19 21 23 25 27 30 32 35 37 39 41 44 46 48 50 52 54 56 58 60 62 64 65 66 68 69 70 71 72 73 74 75 76 77 79 79 80 81 84 85 85 85 85 87 90 94 93 91 92 92 92 92 92 93 93 93 93 95 97 97 98
23 22 21 20 19 18 17 16 15 13 11 10 8 7 6 5 4 5 6 7 8 10 12 14 16 18 20 23 25 27 29 31 33 36 38 41 43 45 48 50 52 54 56 57 59 60 62 63 64 65 67 67 69 70 71 73 74 75 77 78 78 79 80 80 79 80 81 83 83 83 83 86 92 93 89 89 89 89 89 90 91 91 92 92 94 95 96 96
23 22 21 19 18 17 16 14 13 11 9 8 7 5 4 4 5 6 8 9 11 13 16 18 20 22 24 27 29 31 34 36 38 40 43 45 47 49 51 53 54 56 57 58 59 61 62 63 64 65 66 68 69 70 71 73 74 75 76 77 77 78 78 79 78 78 79 81 82 82 81 82 88 92 89 86 86 87 88 89 90 91 91 91 91 93 94 94
22 21 19 18 17 15 13 12 10 9 7 6 4 3 4 5 7 9 11 13 15 17 20 22 25 27 29 31 34 36 38 40 42 45 46 48 50 52 53 54 55 57 58 59 60 61 62 63 65 65 67 68 69 69 70 71 72 72 73 74 75 76 76 77 78 78 78 80 80 81 81 80 83 89 86 82 83 84 85 87 89 90 89 88 88 89 91 91
20 19 17 16 14 12 11 9 8 6 5 4 4 4 6 8 10 13 15 17 19 22 24 26 29 31 33 36 38 40 42 44 46 47 49 50 51 53 54 55 56 57 58 59 60 62 63 64 65 66 66 66 66 67 68 70 70 71 71 72 74 74 75 76 76 77 78 80 80 80 81 80 82 87 84 79 81 81 81 84 86 88 87 86 86 87 87 88
17 16 14 12 11 9 8 6 5 4 5 5 6 8 10 12 14 17 19 22 25 27 29 31 33 35 37 39 41 42 44 46 47 49 50 51 52 53 54 55 56 58 59 60 61 63 63 64 64 64 64 65 65 66 68 68 69 70 70 71 73 74 76 77 78 79 81 84 85 84 86 86 87 91 88 85 86 86 85 85 87 90 90 90 89 88 88 89
14 12 11 9 8 7 5 4 4 5 7 8 10 12 15 17 19 22 24 27 29 31 33 35 37 39 40 42 43 44 45 46 48 49 50 52 53 53 54 56 57 59 60 61 61 61 61 61 62 62 63 64 64 65 67 67 68 70 71 73 75 76 78 80 82 83 85 87 89 90 92 93 94 95 94 93 94 94 92 92 93 96 98 98 98 96 94 93
11 9 8 6 5 4 4 4 6 8 10 12 14 17 19 21 24 26 28 30 32 34 36 38 39 41 42 43 43 44 45 46 47 49 49 51 52 54 55 57 58 59 59 59 59 59 59 59 60 60 61 63 65 67 69 70 70 71 72 71 71 72 74 76 79 80 80 82 84 87 90 93 95 95 94 94 96 96 96 96 97 99 101 103 103 102 100 99
7 6 4 4 4 4 6 8 10 12 14 16 19 21 23 25 27 29 31 32 34 36 37 39 40 41 42 43 44 45 46 47 48 49 50 52 54 56 57 58 58 58 58 58 58 58 58 59 60 61 62 64 66 68 70 71 70 70 71 70 69 69 68 69 72 74 74 75 78 81 85 88 90 92 92 93 95 96 97 97 98 99 101 104 105 105 104 103
4 3 3 4 6 8 10 12 14 16 18 20 23 24 26 28 30 31 33 34 36 37 38 40 41 42 43 44 45 46 47 48 50 52 54 55 55 55 55 54 53 54 55 57 59 60 60 61 62 62 63 62 61 62 65 67 68 69 70 72 73 72 69 69 71 72 71 72 74 79 81 83 86 89 90 93 94 96 96 96 97 98 100 102 104 105 106 106
3 4 6 8 10 12 15 17 18 20 22 24 26 27 28 30 32 33 35 36 37 38 39 41 42 43 44 44 45 47 49 50 52 53 53 53 51 50 49 49 50 51 54 56 58 60 60 61 61 61 61 61 61 62 64 67 70 72 74 76 78 79 78 76 77 77 76 72 72 77 80 80 83 86 89 91 93 94 94 95 96 97 98 100 101 103 104 105
6 8 10 12 15 17 18 20 22 23 25 27 28 29 31 32 34 35 36 37 39 40 42 42 43 43 44 46 48 50 51 52 51 51 50 49 48 48 49 50 52 53 55 56 56 58 60 60 61 62 63 64 66 68 70 71 73 75 77 78 80 83 83 82 83 84 84 78 75 77 79 79 81 84 88 90 91 92 93 95 96 97 98 99 99 100 101 103
10 12 14 16 18 20 21 23 25 26 27 29 30 32 33 34 35 36 38 40 41 41 42 42 44 45 47 49 51 51 51 50 49 48 47 48 49 50 51 52 52 53 53 53 55 59 63 65 66 67 68 68 70 71 72 73 74 75 77 77 79 81 82 83 83 86 88 86 81 80 80 80 82 86 88 90 90 91 94 95 97 98 99 99 99 99 100 101
14 16 17 19 21 22 24 25 27 28 29 31 32 33 34 36 37 39 40 40 40 41 42 44 47 49 50 50 50 49 48 47 46 46 47 47 48 49 50 50 51 51 52 53 55 58 63 67 68 69 69 70 71 71 72 73 74 74 75 76 77 78 81 83 84 85 88 88 85 83 82 81 85 88 89 89 90 92 94 96 97 97 98 98 98 98 98 98
17 18 20 22 23 24 26 27 29 30 31 32 33 35 36 38 39 39 39 40 41 43 46 48 49 49 49 48 47 46 45 45 45 46 46 47 47 48 49 50 51 53 54 55 57 59 61 66 68 68 68 69 70 71 72 73 73 74 75 77 78 79 80 83 87 89 90 90 88 86 82 82 86 90 90 90 91 92 94 95 96 96 95 95 95 95 95 95
19 21 22 24 25 26 28 29 30 31 32 34 35 36 37 38 38 39 40 43 45 47 49 49 49 48 46 45 45 44 45 45 45 46 46 47 47 48 50 51 53 55 56 57 59 59 60 63 66 67 66 67 68 69 70 72 73 74 76 79 81 82 82 82 86 91 93 93 93 90 85 83 88 92 93 93 93 94 95 95 95 95 94 94 93 92 92 92
21 23 24 25 27 28 29 31 32 33 34 35 36 37 37 38 39 42 44 47 48 49 49 48 46 45 44 43 43 44 44 45 45 46 47 47 49 50 52 53 55 56 57 58 59 59 59 60 64 66 65 65 67 68 69 70 72 73 76 78 81 83 83 82 83 87 91 94 96 95 90 88 91 95 95 95 96 96 97 97 97 97 97 96 95 94 93 92
23 25 26 27 28 30 31 32 34 35 36 36 36 37 38 41 43 46 47 49 49 48 46 45 43 43 43 43 43 44 44 45 46 46 47 48 50 51 53 54 55 56 57 58 58 58 58 59 61 64 65 66 68 69 71 72 73 74 75 77 79 80 82 81 80 82 87 91 97 98 94 91 94 97 97 97 98 99 100 100 100 101 101 100 99 97 95 92
25 26 28 29 30 31 33 34 35 35 35 35 37 39 42 45 47 48 48 48 47 45 43 42 41 42 43 43 44 45 45 46 47 48 49 50 51 52 53 55 56 57 57 58 58 58 58 60 62 63 64 65 68 72 74 75 76 76 77 78 80 81 83 84 83 82 84 88 94 97 95 94 97 100 100 100 101 102 103 103 103 103 102 100 98 95 92 88
27 28 29 31 32 33 35 35 35 35 36 38 41 43 45 47 48 48 47 45 44 42 41 40 41 42 43 44 45 46 47 47 48 49 50 51 53 54 55 56 57 58 58 59 60 60 60 61 64 66 66 68 73 77 78 79 79 78 78 79 80 82 83 85 86 85 84 86 90 93 93 94 98 103 104 104 103 102 102 102 102 100 98 96 94 92 90 87
28 30 31 32 34 34 34 34 35 37 39 42 44 46 48 48 47 46 45 43 41 40 40 40 41 42 43 44 46 47 48 49 49 50 52 53 55 56 57 58 59 60 61 62 63 64 64 65 66 67 64 65 73 78 79 81 80 77 76 76 78 80 81 83 85 86 86 88 92 95 95 94 98 102 104 105 104 102 101 100 99 96 92 90 88 87 87 85
30 31 32 33 34 34 34 36 38 41 43 45 47 48 48 47 45 44 42 40 39 39 40 41 42 43 44 45 47 48 49 50 51 53 54 56 57 58 60 61 62 63 65 67 68 68 69 71 73 74 68 62 64 67 67 70 74 75 76 77 79 81 82 84 87 88 88 88 92 98 98 96 97 101 102 103 103 100 99 98 97 93 89 86 84 83 82 80
31 32 33 33 33 35 37 39 42 44 46 47 48 47 46 45 43 41 40 39 39 40 41 42 43 45 45 47 48 49 51 52 54 56 57 59 60 62 64 65 66 68 69 70 71 73 74 76 80 86 85 77 75 76 74 73 75 77 80 82 83 84 85 87 89 90 90 89 91 98 101 98 98 100 101 101 99 97 96 95 93 89 85 82 80 78 76 73
32 32 32 32 34 37 39 42 44 46 47 47 47 46 45 43 42 40 40 40 40 41 42 44 45 46 48 49 51 53 55 57 58 60 61 63 64 66 68 69 70 72 73 73 74 75 77 78 81 88 93 90 89 90 90 87 85 84 85 86 87 87 88 91 92 93 94 93 92 96 101 102 100 100 100 99 96 94 94 93 89 83 78 75 73 71 68 66
30 30 32 34 37 39 41 44 46 47 47 47 45 44 43 41 41 40 40 40 41 42 44 46 47 49 51 53 55 57 59 61 63 64 66 68 69 70 71 72 73 74 75 76 76 76 78 79 80 85 90 91 90 92 93 91 89 88 88 89 90 91 92 93 93 94 96 98 96 96 100 103 102 100 99 98 96 93 93 90 84 76 71 69 66 63 61 60
29 31 34 37 39 41 43 45 47 47 46 45 44 43 42 41 40 39 40 41 42 44 46 48 50 51 54 56 58 60 62 65 66 68 69 71 72 72 73 74 75 76 76 77 77 77 78 79 79 81 86 89 88 91 92 91 90 89 89 91 92 92 93 93 94 96 97 98 99 98 99 101 102 101 98 96 93 92 91 87 79 73 70 66 63 61 59 57
31 34 36 38 40 43 45 46 46 46 45 43 43 42 41 40 39 39 40 41 44 46 48 50 52 54 57 59 61 63 64 66 68 70 71 72 73 73 74 75 76 76 77 77 77 78 79 80 80 80 83 86 87 90 92 90 89 88 89 90 91 91 94 96 96 96 95 95 96 98 98 98 100 99 96 93 90 89 90 86 79 74 71 66 61 59 58 57
33 35 37 40 42 44 45 46 45 43 43 42 42 42 40 39 39 39 41 43 46 48 50 53 55 57 60 62 63 65 66 68 69 71 72 72 73 74 75 76 76 77 77 77 78 79 80 81 81 80 81 84 86 89 91 89 87 86 87 88 88 89 92 95 95 94 93 92 93 95 96 95 96 96 93 92 91 90 90 86 78 72 69 64 60 57 56 56
34 36 38 41 43 45 45 44 42 42 42 42 42 41 40 39 39 40 42 45 48 50 53 55 58 60 63 64 66 68 69 71 71 72 72 72 73 74 74 75 75 76 77 78 80 80 81 82 82 81 81 82 83 86 89 87 84 85 87 87 86 86 88 91 94 95 95 95 94 95 96 96 95 94 91 89 88 87 87 82 74 69 66 62 58 55 54 53
34 37 40 42 44 44 43 41 40 41 42 42 41 40 40 39 39 41 43 46 49 52 54 57 60 63 65 67 68 70 70 71 71 71 72 72 72 72 73 73 74 75 76 78 79 80 81 81 82 82 82 82 83 85 88 88 84 84 86 85 85 85 84 87 93 96 96 99 100 99 99 97 94 90 87 83 82 83 85 80 73 68 64 60 58 56 53 52
Wind_Direction
242 244 246 248 250 252 254 256 258 260 262 263 265 267 269 271 273 275 276 277 279 280 281 283 284 285 286 287 286 286 287 289 289 289 289 289 289 290 290 290 290 291 291 291 291 292 292 291 290 289 288 288 287 286 286 285 284 283 282 281 280 279 277 275 273 273 273 272 273 273 273 274 274 273 273 273 272 272 273 274 275 277 277 277 277 276 276 275
242 245 247 249 251 253 254 256 259 261 263 265 267 269 270 272 274 275 276 277 279 280 282 283 284 285 285 286 286 287 288 288 289 289 289 290 290 290 291 291 291 292 292 292 292 292 291 290 289 289 288 288 287 287 286 286 285 284 283 281 278 276 274 272 272 271 271 271 271 271 271 272 272 272 273 275 274 273 275 276 277 278 278 278 278 277 277 277
243 245 247 250 252 254 256 258 260 262 264 266 268 270 271 273 274 275 277 278 280 281 282 283 283 284 284 285 286 287 288 288 288 289 289 290 291 291 291 292 292 293 293 292 292 291 290 289 289 290 290 289 288 288 288 287 285 284 280 277 275 274 272 271 271 270 270 270 270 269 269 270 271 272 274 277 279 278 278 279 279 278 278 277 277 277 278 279
245 247 249 251 254 256 258 260 262 264 265 267 268 270 271 273 274 276 278 279 280 281 281 282 282 283 284 285 286 287 287 288 289 289 290 290 291 292 292 293 293 293 293 291 290 289 289 290 291 291 291 290 290 289 286 284 280 277 274 272 271 271 271 270 270 270 269 270 270 270 270 271 273 274 276 278 280 281 280 278 278 278 278 278 278 278 280 281
247 249 251 253 256 258 260 262 263 265 266 268 269 270 272 273 275 276 277 278 279 279 280 281 282 283 284 285 285 286 287 288 289 290 290 291 292 293 293 293 293 292 291 290 289 290 291 292 293 293 293 293 290 285 280 277 274 271 270 270 270 270 269 269 270 270 271 273 274 274 274 275 277 277 277 278 280 281 280 279 278 279 280 281 281 281 282 282
248 250 252 254 256 258 260 262 264 265 267 268 269 270 272 273 274 275 275 276 277 278 279 281 281 282 283 283 285 286 288 289 290 290 291 292 292 293 292 292 292 291 291 291 292 294 296 298 298 297 294 289 283 279 275 273 272 271 271 271 272 272 271 271 271 273 276 278 279 279 278 279 280 281 279 280 281 282 282 282 281 282 282 282 283 283 283 282
249 250 252 254 256 258 260 262 263 265 266 267 268 268 269 270 271 273 274 275 277 278 279 280 280 281 283 284 286 287 289 290 290 291 292 292 292 292 291 291 290 291 295 300 303 303 303 300 295 291 285 281 278 276 274 274 273 272 273 273 274 275 276 276 277 278 280 281 282 281 281 281 282 284 283 283 283 282 282 282 283 283 283 283 282 282 282 281
248 250 252 254 255 257 259 260 262 263 263 264 265 266 267 269 270 272 274 275 276 277 278 279 281 283 285 286 288 289 290 290 291 291 291 291 290 290 290 290 292 297 305 310 307 301 296 290 286 282 280 279 277 276 276 276 276 275 276 276 276 278 279 279 280 281 282 283 284 283 283 283 284 285 286 285 284 282 282 283 284 284 283 283 282 282 282 282
248 250 251 253 254 256 257 258 259 260 261 262 263 265 267 268 270 272 274 275 276 278 280 282 284 285 287 287 288 289 289 290 290 289 289 288 288 288 289 293 300 306 308 304 297 290 287 283 281 280 279 279 278 278 278 278 278 278 279 278 278 279 280 281 282 283 284 285 286 286 285 285 285 286 286 286 284 284 284 284 284 284 283 283 283 283 283 283
247 249 250 251 252 254 255 256 256 258 259 261 262 264 267 269 271 273 275 277 279 280 282 284 285 286 287 288 288 288 288 287 286 284 283 283 286 291 300 309 314 309 298 291 285 281 281 280 278 279 279 279 280 279 279 279 279 279 280 280 281 282 283 283 284 284 285 286 287 287 286 286 286 286 286 286 285 285 285 284 284 284 284 284 284 284 284 284
245 246 247 248 249 251 252 254 255 257 259 261 264 266 269 271 273 275 277 279 281 283 284 285 285 286 286 286 285 283 281 279 276 275 278 289 303 314 320 311 299 289 281 278 277 276 277 277 277 278 278 278 279 280 281 282 283 283 283 284 285 286 287 286 286 286 287 288 288 288 288 288 288 287 286 285 285 285 285 285 284 284 284 283 283 283 283 283
244 245 246 248 249 251 253 255 257 259 262 264 267 269 271 273 276 278 279 281 282 283 283 283 283 283 282 280 277 272 269 270 271 280 297 316 308 291 281 274 270 270 270 272 273 274 276 278 279 280 281 283 284 285 286 287 288 288 288 288 288 289 289 290 290 290 290 290 290 289 289 289 289 288 286 285 285 285 284 284 284 284 283 283 283 283 283 283
245 246 247 249 251 252 255 257 260 263 265 268 270 272 274 276 277 278 279 280 280 280 280 279 277 275 272 267 263 260 264 277 288 283 262 250 251 254 257 261 264 267 270 273 276 279 282 284 286 288 289 291 291 292 292 293 293 293 293 293 292 292 291 291 291 291 290 289 288 288 287 288 288 288 287 286 286 285 285 284 284 283 283 282 282 282 282 282
247 248 250 251 253 256 258 261 264 266 268 270 272 273 274 275 275 275 275 275 274 272 268 264 257 248 238 230 223 173 138 156 202 228 238 245 253 260 264 269 273 277 280 283 286 288 290 292 294 295 295 296 296 296 295 296 296 295 295 294 294 293 292 291 291 290 290 289 288 287 286 286 287 287 287 287 286 286 285 284 284 283 283 283 282 282 282 282
250 252 254 256 258 260 263 264 266 267 268 268 269 269 268 269 268 267 264 261 254 243 228 206 187 171 153 152 163 164 179 210 230 242 251 260 269 276 280 283 285 288 290 292 294 295 297 298 299 299 299 298 297 297 296 295 295 294 293 293 292 292 292 291 290 290 290 289 289 288 287 286 286 286 286 285 285 284 284 284 284 284 284 284 284 283 283 283
253 255 257 259 260 261 261 262 261 261 260 260 259 257 254 251 247 239 226 211 195 180 167 159 156 158 157 167 191 205 226 247 259 266 274 282 287 291 292 294 295 296 298 299 299 300 300 300 300 299 298 297 296 295 294 293 293 292 291 291 291 290 291 291 291 290 289 289 288 287 286 286 285 285 284 284 284 284 283 283 283 284 284 284 285 285 285 285
253 254 254 254 254 253 252 251 249 248 246 242 237 230 220 206 192 180 168 162 158 156 155 158 164 171 179 198 229 251 269 277 284 288 291 294 297 299 300 301 302 302 302 302 302 301 301 300 298 297 296 295 294 293 293 293 292 292 292 292 291 290 290 290 290 290 289 288 287 287 286 286 285 285 284 284 284 284 284 284 284 285 285 285 286 286 286 285
244 243 241 240 237 233 230 225 219 213 205 198 191 183 176 169 164 159 155 152 150 150 154 161 171 196 229 258 274 286 292 295 297 300 300 301 302 303 304 304 304 304 303 302 301 300 299 298 296 296 295 294 293 293 292 292 292 292 291 291 292 291 290 290 289 290 290 289 289 288 288 287 287 286 286 286 286 286 286 286 286 286 286 287 287 287 287 286
223 219 215 210 205 198 191 183 175 169 165 162 159 156 154 150 147 144 143 141 139 141 148 161 208 258 283 299 303 302 303 303 303 304 305 305 306 305 304 304 303 302 300 299 298 298 297 296 295 295 294 294 293 292 292 292 291 291 290 290 290 290 290 290 289 289 289 290 290 289 289 288 288 288 287 287 287 287 286 287 287 287 287 287 287 287 286 286
183 180 177 174 171 166 162 159 156 152 148 145 142 139 137 134 132 131 132 131 129 135 148 267 287 296 308 313 313 311 309 308 307 306 306 305 304 303 302 301 300 299 298 297 297 296 295 294 294 293 293 293 292 292 292 292 292 291 291 291 291 291 291 290 290 289 289 290 290 290 290 289 288 288 288 287 287 287 287 287 287 287 287 286 286 286 285 284
149 148 146 145 143 141 139 135 132 129 128 126 124 123 123 123 123 124 126 119 102 42 338 324 316 315 316 315 314 312 310 307 305 304 302 302 301 300 299 299 298 298 297 296 296 295 294 294 294 293 293 293 293 293 293 293 293 293 293 293 293 293 292 292 292 291 291 291 291 291 291 290 289 288 288 287 287 287 287 287 287 287 287 286 286 285 285 284
132 130 128 126 123 120 117 114 112 111 110 109 109 110 110 108 109 106 88 61 25 350 338 327 321 317 314 312 310 308 306 304 302 301 300 300 299 298 298 298 297 297 296 296 296 295 295 295 295 295 295 295 295 295 295 295 295 295 295 294 294 294 294 294 294 294 293 293 292 291 291 291 290 289 288 288 288 288 289 289 289 288 288 287 287 286 285 284
118 116 115 113 111 110 109 108 106 105 103 102 103 100 93 87 81 56 25 15 353 337 329 321 315 312 308 307 305 303 302 301 300 300 300 300 299 299 299 299 298 298 298 297 297 297 297 297 297 297 297 297 297 297 297 297 296 296 296 295 295 295 294 294 294 294 294 294 293 292 292 292 291 290 290 290 291 291 292 292 291 290 290 289 287 286 286 285
109 108 107 107 107 106 106 105 104 103 102 99 94 85 74 59 38 13 357 345 333 324 318 312 307 305 303 303 302 301 301 300 300 300 300 300 300 300 300 300 299 299 299 299 299 299 299 299 299 299 299 300 300 300 300 299 299 298 297 297 296 296 296 296 295 295 295 295 295 294 294 294 294 293 293 293 294 295 295 294 293 292 291 289 289 288 288 287
107 106 106 105 105 105 105 104 103 101 97 88 77 68 47 20 0 344 332 322 316 313 310 306 304 303 303 303 303 303 302 302 302 302 303 302 302 302 302 301 301 301 301 301 301 301 301 301 301 302 302 302 301 301 300 300 299 299 298 299 299 299 299 299 299 298 298 297 297 296 296 296 295 294 295 296 297 297 296 295 293 292 291 290 290 289 288 288
106 106 106 106 106 107 104 100 96 91 81 69 52 30 357 341 327 319 316 312 309 307 306 305 305 305 306 305 305 305 305 305 306 306 305 305 305 304 304 304 303 303 303 303 304 304 304 304 303 303 303 302 302 301 301 300 300 301 301 302 302 302 301 301 300 300 299 298 297 297 296 295 293 293 294 296 296 295 294 293 292 291 290 290 289 288 287 287
105 105 106 106 105 102 96 89 84 71 54 32 359 335 321 315 310 310 310 308 307 307 306 307 307 307 307 307 308 308 308 308 308 307 307 307 307 306 306 306 306 306 306 307 306 306 305 305 304 304 304 304 304 304 304 304 304 304 304 304 303 302 302 301 301 301 300 299 299 298 297 297 296 296 296 298 298 296 295 294 293 292 291 290 289 289 289 288
103 103 101 99 96 92 86 76 58 33 9 341 321 314 310 308 309 310 310 309 309 309 309 309 309 309 309 309 310 310 309 310 310 309 309 309 308 308 309 309 309 309 309 308 308 307 307 307 307 307 307 307 307 307 306 305 305 305 306 306 306 306 307 307 307 306 306 306 306 305 304 304 304 303 303 304 303 301 300 299 299 298 297 296 295 294 293 292
100 97 93 89 83 76 66 41 9 343 327 316 311 310 309 310 311 311 311 311 311 311 312 312 312 312 312 312 312 312 312 311 311 311 311 311 311 312 312 312 311 310 310 310 309 309 309 309 309 310 309 309 308 307 307 308 309 310 311 312 312 312 312 311 311 310 309 309 309 308 307 307 306 306 306 306 304 303 303 303 302 302 301 300 300 299 298 296
95 90 84 75 60 41 13 344 326 315 310 309 309 310 311 312 312 312 312 312 312 313 313 313 313 313 313 313 313 312 312 312 312 312 312 313 313 312 311 311 310 310 310 310 310 310 310 311 311 311 311 312 312 312 313 314 314 314 313 312 310 309 309 309 308 308 307 306 305 304 304 304 302 303 304 301 300 300 301 302 301 301 300 300 300 300 299 299
89 82 67 44 12 343 328 320 314 309 309 310 311 312 313 314 314 314 314 314 314 314 314 313 313 313 313 314 314 314 314 314 314 314 314 313 313 313 313 314 314 315 315 314 314 314 314 314 315 316 317 318 317 316 315 313 312 310 309 306 304 303 302 302 302 302 302 301 300 299 299 299 298 299 299 297 296 297 298 298 298 298 299 298 299 299 299 299
74 47 6 341 327 320 318 316 314 313 313 313 314 315 316 315 315 315 315 315 315 315 315 315 315 316 316 316 317 317 318 318 318 318 318 318 319 319 319 319 319 318 318 319 319 318 318 319 319 319 318 316 313 310 308 307 305 304 302 301 299 296 295 293 293 293 293 295 296 296 296 297 296 297 297 296 295 296 296 296 296 296 297 297 298 298 299 299
6 340 328 323 320 318 318 317 316 316 316 317 317 317 317 317 317 318 318 317 317 317 317 318 318 319 319 319 320 321 321 321 321 321 322 322 322 320 319 319 319 320 321 322 322 320 319 318 316 314 312 309 306 303 301 300 300 299 299 298 298 296 296 295 293 292 292 293 295 296 297 297 297 298 297 297 297 296 296 295 295 295 295 295 296 297 298 298
330 326 323 321 320 319 318 318 318 319 319 320 320 320 320 320 320 320 320 320 320 321 321 321 322 322 322 323 323 323 323 323 323 324 324 323 322 322 323 324 325 325 325 323 320 316 313 311 310 308 306 305 303 302 301 301 301 301 302 302 302 302 302 302 301 300 299 299 300 301 302 302 301 301 300 299 299 298 297 296 295 295 295 295 296 297 298 298
325 324 322 320 320 320 320 320 321 322 322 322 322 323 323 323 322 322 323 323 324 324 324 324 325 325 326 326 325 325 325 325 326 326 327 327 328 329 328 328 326 324 321 318 314 312 310 309 308 307 306 306 307 306 306 306 306 305 305 306 306 306 306 307 307 306 305 305 305 305 305 305 304 302 301 300 300 299 298 298 298 298 298 299 299 299 299 299
324 322 321 321 321 322 322 323 323 323 324 324 325 325 324 324 325 325 325 326 325 326 326 327 328 328 327 327 327 327 328 329 330 331 331 332 331 329 326 324 321 318 315 313 310 309 309 308 309 309 310 310 311 311 310 309 309 309 309 309 309 310 311 310 309 308 307 306 306 305 305 307 306 304 303 303 303 302 302 301 301 301 301 301 300 300 299 298
323 322 322 323 324 324 325 324 325 326 326 326 326 326 327 327 327 327 327 327 328 329 330 330 329 329 328 329 330 331 333 334 334 334 333 331 329 325 322 319 316 314 312 310 309 309 309 310 311 312 313 313 313 314 314 314 314 315 315 315 315 315 315 313 311 309 307 306 306 307 308 310 308 307 306 306 306 305 304 304 303 303 302 301 301 300 299 298
323 323 324 325 326 326 326 326 327 327 327 327 327 328 329 329 329 329 330 331 332 332 331 330 330 331 332 334 335 336 337 337 336 334 331 328 325 321 318 316 314 313 311 311 310 310 311 313 314 314 314 315 315 316 318 320 321 322 322 322 321 319 317 315 313 311 310 310 310 310 313 314 311 308 308 308 307 307 307 306 306 306 305 304 303 302 302 302
325 325 326 327 327 327 327 328 328 328 329 330 331 331 331 331 332 333 334 335 334 333 332 332 334 335 337 338 339 339 338 336 334 331 328 324 321 318 317 315 314 313 313 312 313 313 314 316 318 318 318 319 320 321 323 323 323 324 325 324 323 322 319 318 318 317 316 316 314 313 314 316 312 309 310 310 311 311 310 310 311 310 310 309 308 308 308 307
325 326 327 328 328 329 329 330 330 331 332 332 332 333 333 335 336 336 336 335 334 334 335 337 339 340 341 341 340 339 337 334 332 329 326 322 320 318 317 316 316 316 316 316 317 318 319 321 322 324 325 326 325 324 325 325 325 326 326 324 323 322 321 320 321 321 320 318 315 313 314 317 315 313 314 314 315 315 315 316 315 315 313 312 311 311 310 309
326 328 329 330 331 331 331 331 332 333 334 334 335 336 337 338 338 337 336 335 336 338 340 341 343 343 343 341 340 338 336 333 330 328 325 323 321 320 319 320 320 321 321 322 323 324 325 326 327 329 329 328 328 328 330 330 329 329 328 327 326 325 324 321 319 318 318 317 315 315 318 321 320 318 318 319 319 319 318 318 316 314 312 312 312 312 311 308
328 330 332 333 333 333 332 333 334 336 337 338 339 339 339 339 338 337 336 338 340 342 344 345 345 344 343 341 339 337 334 332 330 328 326 324 324 324 324 325 326 326 327 328 329 329 330 331 331 332 333 334 334 334 335 334 333 332 331 329 328 325 323 319 316 316 317 319 320 319 321 324 323 321 321 321 321 320 318 316 314 313 313 314 315 314 311 310
332 334 334 334 333 333 334 336 338 339 339 340 340 340 339 338 337 338 340 342 344 346 347 346 345 343 342 340 337 336 334 333 331 329 328 328 328 329 330 330 330 331 332 333 333 333 333 333 333 332 333 336 337 336 336 336 334 331 329 327 326 325 324 322 322 323 324 326 325 323 322 325 325 323 322 321 320 319 317 315 313 314 316 317 316 314 312 312
335 335 334 334 334 336 338 340 340 340 340 341 340 339 338 338 340 341 344 346 348 348 347 345 344 343 341 339 337 336 334 333 332 331 331 332 332 333 334 334 335 336 337 337 337 336 337 336 335 334 331 331 331 329 328 330 330 330 329 329 329 330 330 329 329 328 328 328 329 327 325 326 326 324 322 321 320 319 317 315 315 317 320 320 316 313 312 311
335 334 334 336 338 341 342 342 341 341 341 340 339 339 339 341 343 345 347 349 350 348 346 345 344 341 340 339 338 336 335 334 334 334 335 335 336 337 337 338 338 339 339 339 339 339 339 339 339 338 336 335 334 331 330 331 333 334 335 334 334 334 334 333 331 330 328 329 331 329 326 326 326 324 323 321 320 319 318 316 317 320 322 320 316 313 312 311
335 336 338 340 342 343 343 342 341 340 340 339 340 341 342 344 346 348 350 350 349 348 346 344 342 340 340 340 339 338 337 337 337 338 338 338 338 339 339 340 340 341 340 340 340 340 340 341 341 340 338 338 339 338 337 338 338 339 339 338 337 337 337 335 333 331 329 329 331 329 327 326 326 324 323 322 321 321 318 317 319 322 321 317 314 313 311 309
338 340 342 344 344 344 343 341 340 340 339 340 342 344 346 347 348 350 351 349 348 347 345 343 341 341 341 341 340 340 339 340 340 340 340 340 340 340 341 341 341 341 341 341 341 340 341 341 342 341 338 338 339 338 338 339 339 340 340 339 339 339 338 336 334 332 331 330 330 329 327 326 326 326 326 325 324 322 319 318 321 323 320 317 315 314 311 310
341 343 344 345 344 343 342 341 340 340 341 342 345 347 348 349 350 350 349 348 347 346 344 343 342 343 343 342 341 341 341 341 341 341 341 341 341 341 341 341 341 341 341 340 340 341 341 341 341 341 338 337 338 338 338 339 340 340 341 340 340 340 338 336 335 333 331 331 330 329 328 327 327 328 328 327 326 323 319 319 323 325 323 321 320 318 315 314
344 345 345 344 343 342 341 341 341 342 343 345 347 349 349 349 349 348 347 347 346 345 344 343 344 344 343 342 342 342 342 342 342 342 341 340 341 341 341 341 341 341 340 340 340 341 341 340 340 341 339 338 338 338 337 339 340 340 340 340 339 339 339 337 335 332 329 329 329 328 328 329 330 330 330 329 327 324 320 322 327 328 325 324 324 321 319 318
346 346 344 343 342 342 342 342 343 344 346 348 349 350 350 349 349 347 346 346 346 345 345 344 344 344 343 342 343 343 343 343 343 342 340 341 341 341 341 341 341 341 340 341 341 341 341 340 339 340 340 339 339 339 338 339 340 340 339 339 338 339 340 337 334 329 326 326 327 328 329 331 332 331 331 332 331 327 323 324 328 328 326 326 325 324 322 321
346 344 343 343 342 342 343 344 345 346 348 350 351 351 351 350 349 347 346 346 346 346 346 345 345 344 343 344 344 344 344 343 342 341 341 341 341 341 341 341 341 341 341 342 342 341 341 340 340 340 341 340 340 339 338 339 340 340 339 337 337 339 339 337 334 330 327 327 328 330 332 334 335 334 333 334 333 328 323 323 327 327 326 327 327 325 324 322
344 343 343 343 343 344 345 346 347 349 351 352 352 352 352 351 350 348 347 347 347 347 346 345 344 344 345 346 345 345 344 343 342 341 341 341 341 341 342 342 342 342 343 343 343 342 342 341 340 341 342 341 341 340 339 340 341 341 338 336 337 338 337 338 336 332 331 332 333 334 335 336 336 334 333 335 334 328 323 324 327 328 327 329 328 326 325 324
Height
10711 10712 10714 10715 10717 10718 10719 10720 10720 10720 10721 10721 10722 10723 10723 10722 10722 10722 10721 10720 10720 10720 10719 10719 10717 10716 10714 10713 10711 10709 10708 10706 10704 10703 10701 10699 10698 10696 10695 10693 10691 10688 10686 10684 10681 10678 10675 10672 10669 10667 10664 10662 10659 10658 10656 10654 10653 10652 10651 10650 10650 10649 10649 10648 10648 10647 10647 10646 10646 10645 10644 10643 10642 10641 10640 10640 10639 10638 10636 10635 10634 10631 10629 10629 10628 10626 10623 10621
10709 10710 10712 10713 10714 10716 10717 10717 10718 10718 10718 10719 10720 10720 10720 10719 10719 10718 10717 10716 10716 10716 10716 10715 10714 10711 10709 10708 10707 10705 10704 10702 10700 10698 10697 10695 10693 10691 10690 10688 10686 10683 10680 10678 10675 10672 10669 10666 10664 10661 10659 10657 10656 10654 10653 10652 10651 10650 10650 10649 10649 10648 10648 10647 10647 10646 10645 10645 10644 10643 10642 10641 10640 10638 10638 10637 10635 10634 10633 10631 10630 10627 10625 10624 10622 10621 10618 10616
10707 10708 10710 10711 10712 10714 10715 10715 10715 10716 10716 10717 10717 10717 10717 10716 10715 10714 10714 10713 10713 10713 10712 10711 10709 10707 10705 10704 10703 10701 10699 10697 10695 10694 10692 10690 10689 10687 10685 10682 10680 10677 10674 10672 10669 10666 10664 10661 10659 10658 10656 10654 10653 10652 10651 10650 10650 10649 10649 10648 10648 10647 10647 10646 10645 10644 10643 10642 10641 10640 10638 10638 10637 10635 10635 10634 10631 10630 10629 10627 10624 10622 10620 10619 10618 10616 10614 10612
10705 10706 10708 10709 10710 10711 10712 10712 10713 10713 10714 10714 10714 10714 10713 10712 10711 10711 10710 10709 10709 10708 10707 10706 10705 10703 10701 10700 10699 10697 10695 10693 10691 10690 10688 10686 10684 10682 10679 10677 10674 10671 10669 10666 10664 10662 10660 10658 10656 10655 10654 10652 10651 10651 10650 10649 10649 10648 10648 10647 10647 10646 10645 10644 10643 10642 10640 10639 10638 10637 10636 10635 10634 10633 10632 10632 10629 10625 10624 10622 10619 10617 10615 10613 10612 10612 10611 10608
10703 10704 10705 10707 10708 10709 10709 10710 10710 10710 10711 10711 10711 10710 10709 10708 10708 10707 10707 10706 10705 10704 10703 10702 10701 10699 10698 10696 10695 10693 10691 10690 10687 10685 10683 10681 10679 10676 10674 10671 10669 10666 10664 10662 10660 10658 10657 10656 10654 10653 10652 10651 10651 10650 10649 10648 10648 10647 10646 10646 10645 10644 10643 10642 10641 10639 10638 10637 10636 10634 10633 10632 10631 10629 10629 10629 10627 10621 10617 10616 10614 10613 10611 10609 10607 10607 10606 10603
10701 10702 10703 10704 10705 10706 10706 10707 10707 10707 10708 10707 10707 10706 10705 10705 10704 10704 10703 10702 10701 10700 10699 10698 10697 10696 10694 10693 10691 10689 10688 10685 10683 10681 10679 10676 10674 10671 10669 10667 10665 10663 10661 10659 10658 10656 10655 10654 10653 10652 10652 10651 10650 10649 10648 10647 10647 10646 10645 10644 10643 10642 10641 10639 10638 10637 10636 10635 10633 10631 10629 10629 10628 10625 10624 10625 10623 10618 10612 10610 10610 10608 10607 10605 10602 10600 10599 10597
10698 10699 10700 10701 10702 10703 10703 10704 10704 10704 10704 10704 10703 10702 10702 10701 10701 10700 10699 10698 10697 10696 10696 10694 10693 10692 10690 10689 10687 10685 10683 10681 10678 10676 10674 10672 10670 10667 10666 10664 10662 10660 10659 10658 10656 10655 10654 10653 10653 10652 10651 10650 10649 10648 10647 10646 10645 10644 10643 10642 10641 10640 10639 10637 10636 10635 10634 10633 10630 10627 10626 10626 10626 10622 10619 10621 10618 10613 10608 10604 10604 10604 10601 10599 10596 10593 10592 10590
10696 10697 10698 10699 10699 10700 10700 10701 10701 10701 10700 10700 10699 10698 10698 10698 10698 10697 10696 10695 10694 10693 10692 10691 10690 10688 10686 10685 10683 10681 10679 10676 10674 10672 10670 10668 10667 10665 10663 10662 10660 10659 10657 10656 10656 10655 10654 10653 10652 10651 10650 10649 10648 10647 10646 10645 10643 10643 10642 10641 10640 10639 10637 10635 10634 10633 10631 10630 10627 10623 10621 10622 10622 10619 10615 10614 10611 10606 10603 10600 10599 10598 10594 10591 10589 10587 10585 10583
10693 10694 10695 10696 10696 10696 10697 10697 10697 10697 10696 10696 10696 10695 10695 10695 10694 10693 10692 10692 10691 10690 10688 10687 10685 10684 10682 10680 10678 10676 10674 10672 10671 10669 10667 10666 10664 10663 10661 10660 10659 10658 10657 10656 10655 10654 10653 10652 10651 10650 10649 10648 10647 10646 10644 10643 10642 10641 10640 10639 10638 10636 10634 10633 10631 10630 10629 10627 10624 10618 10616 10618 10618 10615 10611 10606 10603 10600 10597 10595 10594 10591 10587 10584 10582 10580 10579 10576
10691 10691 10692 10692 10693 10693 10693 10693 10693 10693 10693 10693 10693 10692 10692 10691 10690 10690 10689 10688 10687 10686 10685 10683 10681 10679 10678 10676 10674 10672 10671 10670 10668 10667 10665 10664 10663 10662 10661 10660 10659 10658 10657 10656 10655 10654 10653 10652 10651 10650 10649 10647 10646 10644 10643 10642 10640 10639 10638 10636 10636 10634 10632 10630 10628 10627 10626 10624 10621 10614 10609 10612 10612 10610 10607 10599 10595 10595 10591 10588 10586 10585 10581 10577 10575 10573 10572 10569
10687 10688 10689 10689 10689 10689 10690 10690 10690 10690 10690 10690 10689 10689 10688 10688 10687 10686 10685 10684 10683 10682 10680 10679 10677 10676 10674 10673 10671 10670 10669 10668 10667 10665 10664 10663 10662 10662 10661 10660 10659 10658 10657 10656 10654 10653 10652 10651 10650 10649 10648 10646 10645 10643 10641 10640 10638 10637 10635 10634 10633 10631 10628 10626 10625 10624 10623 10620 10618 10611 10603 10604 10606 10604 10601 10594 10589 10588 10585 10580 10578 10577 10574 10571 10568 10566 10564 10561
10684 10685 10686 10686 10686 10686 10687 10687 10687 10686 10686 10686 10686 10685 10685 10684 10683 10683 10682 10681 10679 10678 10677 10675 10674 10672 10671 10670 10669 10669 10668 10667 10666 10665 10664 10663 10663 10662 10661 10660 10659 10658 10656 10655 10654 10653 10652 10651 10649 10648 10647 10645 10644 10642 10640 10638 10636 10634 10632 10631 10630 10630 10625 10621 10620 10619 10618 10616 10613 10608 10599 10595 10597 10596 10593 10588 10584 10581 10578 10574 10570 10567 10565 10562 10559 10557 10555 10553
10681 10682 10682 10683 10683 10683 10683 10683 10683 10683 10683 10683 10682 10682 10681 10681 10680 10679 10678 10677 10676 10675 10673 10672 10672 10671 10670 10670 10669 10668 10667 10667 10666 10665 10664 10664 10663 10662 10661 10660 10658 10657 10656 10655 10653 10652 10651 10650 10649 10647 10646 10644 10642 10640 10638 10635 10633 10631 10628 10626 10624 10624 10623 10618 10615 10614 10613 10611 10607 10604 10598 10589 10586 10585 10583 10580 10575 10572 10569 10565 10561 10558 10555 10552 10550 10548 10546 10544
10678 10679 10679 10679 10680 10680 10680 10680 10680 10680 10680 10680 10679 10679 10678 10677 10677 10676 10675 10674 10673 10672 10672 10671 10671 10670 10670 10669 10669 10668 10668 10667 10666 10665 10665 10664 10663 10662 10661 10659 10658 10657 10656 10655 10654 10652 10651 10650 10648 10646 10644 10642 10639 10637 10635 10632 10630 10627 10624 10622 10619 10617 10615 10613 10610 10607 10606 10604 10601 10597 10593 10586 10580 10576 10573 10570 10566 10562 10558 10554 10550 10547 10544 10541 10540 10538 10536 10534
10675 10676 10676 10676 10677 10677 10677 10678 10677 10677 10677 10677 10676 10676 10675 10675 10674 10674 10673 10672 10672 10671 10671 10671 10670 10670 10670 10669 10669 10668 10668 10667 10666 10666 10665 10664 10663 10662 10661 10660 10659 10657 10656 10655 10653 10652 10650 10648 10646 10644 10642 10639 10637 10634 10631 10629 10626 10624 10620 10617 10615 10612 10607 10606 10603 10601 10598 10595 10592 10589 10585 10580 10574 10569 10564 10560 10556 10553 10548 10543 10539 10535 10532 10529 10527 10525 10523 10521
10672 10673 10673 10674 10674 10674 10675 10675 10675 10674 10674 10674 10674 10673 10673 10673 10673 10672 10672 10672 10671 10671 10671 10671 10670 10670 10670 10670 10669 10669 10669 10668 10667 10666 10666 10665 10664 10663 10661 10660 10659 10657 10655 10654 10652 10650 10648 10646 10644 10641 10639 10636 10634 10631 10628 10625 10622 10620 10616 10612 10610 10608 10603 10598 10595 10593 10591 10587 10582 10579 10576 10572 10566 10560 10555 10550 10546 10542 10538 10533 10529 10525 10521 10518 10515 10512 10510 10506
10670 10671 10671 10671 10672 10672 10672 10672 10672 10672 10672 10673 10673 10672 10672 10672 10672 10672 10671 10671 10671 10671 10671 10671 10671 10671 10671 10671 10671 10670 10670 10669 10668 10668 10667 10666 10664 10663 10661 10659 10658 10656 10654 10652 10650 10648 10646 10644 10642 10638 10636 10633 10630 10627 10623 10620 10616 10613 10610 10606 10602 10601 10599 10594 10588 10583 10581 10579 10574 10568 10564 10561 10556 10550 10545 10541 10536 10531 10526 10522 10518 10514 10511 10508 10504 10500 10496 10492
10668 10669 10669 10670 10670 10670 10671 10671 10671 10672 10672 10672 10672 10672 10672 10672 10672 10672 10672 10672 10672 10672 10672 10673 10673 10673 10673 10673 10672 10672 10671 10670 10669 10668 10667 10665 10664 10662 10660 10659 10657 10655 10652 10650 10648 10646 10643 10641 10638 10635 10631 10628 10625 10622 10618 10615 10612 10608 10604 10601 10595 10590 10589 10587 10582 10575 10569 10566 10563 10557 10551 10547 10544 10539 10534 10529 10525 10520 10515 10511 10507 10503 10500 10497 10493 10488 10483 10479
10667 10668 10668 10669 10670 10670 10670 10671 10671 10671 10672 10672 10672 10672 10673 10673 10673 10673 10674 10674 10674 10674 10674 10675 10675 10675 10674 10674 10673 10673 10672 10670 10669 10667 10666 10664 10663 10661 10659 10657 10655 10653 10650 10648 10645 10642 10639 10636 10633 10630 10626 10623 10619 10616 10613 10609 10606 10602 10598 10595 10591 10584 10579 10577 10574 10569 10563 10557 10551 10545 10539 10534 10532 10528 10522 10517 10513 10509 10505 10500 10497 10493 10489 10485 10481 10476 10470 10465
10667 10668 10669 10670 10670 10671 10671 10672 10672 10672 10673 10673 10673 10674 10674 10674 10675 10675 10675 10676 10676 10676 10676 10676 10676 10676 10675 10675 10674 10673 10671 10670 10668 10667 10665 10663 10662 10659 10657 10655 10652 10650 10647 10644 10641 10638 10635 10631 10628 10625 10621 10618 10614 10610 10606 10602 10599 10595 10590 10586 10582 10578 10570 10565 10563 10560 10555 10550 10544 10536 10527 10521 10520 10518 10511 10505 10501 10497 10493 10489 10486 10482 10478 10474 10469 10463 10457 10451
10668 10669 10670 10671 10672 10673 10673 10674 10674 10675 10675 10675 10676 10676 10676 10676 10677 10677 10677 10678 10678 10678 10678 10678 10677 10677 10676 10675 10674 10672 10671 10669 10668 10666 10664 10662 10660 10657 10655 10652 10649 10646 10643 10640 10637 10633 10630 10626 10622 10619 10615 10611 10607 10603 10599 10595 10590 10586 10582 10576 10571 10568 10562 10554 10549 10548 10545 10541 10535 10527 10516 10506 10503 10505 10500 10493 10489 10485 10482 10478 10474 10470 10465 10461 10455 10448 10442 10435
10670 10671 10672 10673 10674 10675 10676 10676 10677 10677 10678 10678 10678 10679 10679 10679 10679 10680 10680 10679 10679 10679 10679 10678 10678 10677 10676 10674 10673 10672 10670 10668 10666 10664 10662 10659 10657 10654 10651 10648 10646 10642 10639 10635 10632 10628 10624 10620 10616 10612 10608 10604 10600 10596 10591 10587 10582 10577 10572 10567 10561 10556 10553 10546 10537 10532 10530 10529 10524 10517 10507 10495 10487 10488 10487 10481 10476 10473 10469 10466 10461 10456 10451 10446 10440 10432 10426 10418
10673 10674 10675 10676 10676 10677 10678 10679 10679 10680 10680 10681 10681 10681 10681 10681 10681 10681 10681 10681 10681 10680 10680 10679 10678 10676 10675 10674 10672 10670 10669 10666 10664 10662 10659 10656 10654 10651 10648 10644 10641 10637 10633 10630 10626 10622 10618 10613 10609 10605 10601 10596 10591 10587 10582 10577 10573 10568 10562 10557 10552 10546 10542 10540 10532 10523 10516 10513 10511 10506 10498 10484 10472 10472 10475 10469 10464 10461 10457 10452 10445 10440 10436 10430 10423 10415 10410 10404
10675 10676 10677 10678 10679 10680 10681 10681 10682 10682 10683 10683 10683 10683 10683 10683 10683 10683 10682 10682 10681 10681 10680 10679 10677 10675 10674 10672 10670 10668 10666 10664 10662 10659 10656 10653 10650 10647 10644 10640 10636 10632 10628 10624 10620 10616 10611 10607 10602 10598 10593 10588 10583 10578 10573 10567 10561 10556 10550 10545 10541 10536 10531 10527 10524 10518 10508 10500 10497 10494 10489 10478 10459 10455 10462 10459 10453 10450 10445 10437 10430 10424 10419 10414 10408 10400 10396 10392
10678 10679 10680 10681 10682 10683 10683 10684 10684 10684 10685 10685 10685 10685 10684 10684 10684 10684 10683 10683 10682 10681 10679 10678 10676 10674 10672 10670 10668 10666 10664 10661 10659 10656 10653 10650 10646 10642 10639 10635 10630 10626 10622 10618 10614 10609 10604 10600 10596 10591 10585 10581 10576 10571 10565 10558 10552 10546 10541 10535 10531 10526 10520 10514 10510 10506 10500 10491 10485 10480 10478 10474 10454 10439 10447 10452 10445 10439 10431 10423 10415 10407 10404 10401 10396 10389 10382 10377
10681 10682 10683 10683 10684 10685 10686 10686 10686 10686 10686 10686 10686 10686 10685 10685 10685 10684 10684 10682 10681 10680 10678 10676 10674 10672 10670 10668 10666 10663 10661 10658 10655 10652 10648 10645 10641 10637 10633 10629 10624 10620 10615 10611 10606 10601 10597 10592 10588 10583 10578 10573 10567 10562 10556 10550 10545 10540 10534 10528 10522 10517 10511 10504 10499 10493 10488 10480 10475 10470 10464 10464 10452 10433 10437 10444 10436 10429 10420 10409 10400 10392 10390 10389 10383 10376 10369 10364
10684 10684 10685 10686 10687 10687 10687 10687 10687 10687 10687 10687 10687 10687 10686 10686 10685 10684 10683 10682 10680 10678 10676 10675 10672 10670 10668 10665 10663 10660 10657 10655 10651 10647 10643 10639 10635 10631 10627 10622 10618 10613 10608 10604 10599 10594 10589 10585 10580 10576 10571 10566 10560 10554 10547 10541 10537 10532 10527 10521 10513 10507 10501 10495 10489 10482 10476 10467 10462 10459 10449 10447 10441 10424 10427 10434 10424 10416 10410 10398 10387 10378 10375 10372 10368 10363 10358 10352
10686 10687 10688 10688 10688 10689 10689 10689 10689 10688 10688 10688 10687 10687 10686 10685 10684 10683 10682 10680 10678 10676 10674 10672 10670 10668 10665 10663 10660 10657 10654 10650 10646 10642 10638 10634 10630 10625 10621 10616 10611 10606 10601 10597 10593 10587 10582 10577 10571 10567 10562 10557 10551 10545 10539 10534 10530 10525 10520 10513 10505 10499 10492 10484 10478 10471 10464 10455 10448 10444 10435 10430 10426 10412 10411 10416 10407 10399 10395 10387 10376 10365 10358 10353 10349 10348 10343 10337
10689 10689 10690 10690 10690 10690 10690 10690 10690 10690 10689 10688 10688 10687 10686 10685 10683 10682 10680 10678 10676 10674 10671 10669 10666 10664 10662 10659 10656 10653 10650 10646 10642 10637 10633 10628 10624 10620 10615 10610 10605 10601 10595 10590 10585 10580 10575 10570 10565 10560 10554 10549 10544 10538 10532 10527 10523 10517 10512 10505 10496 10490 10483 10475 10468 10461 10453 10445 10436 10431 10421 10414 10411 10404 10399 10397 10390 10382 10379 10374 10365 10353 10344 10336 10332 10329 10325 10320
10691 10691 10691 10692 10692 10692 10692 10691 10691 10690 10689 10688 10687 10686 10685 10684 10682 10680 10678 10676 10674 10671 10669 10666 10664 10661 10658 10655 10652 10649 10646 10642 10638 10634 10629 10625 10620 10615 10611 10606 10601 10595 10590 10584 10579 10574 10569 10564 10559 10554 10548 10541 10535 10528 10522 10517 10513 10509 10504 10499 10492 10484 10478 10469 10460 10453 10446 10439 10430 10422 10414 10403 10395 10395 10392 10384 10376 10371 10367 10363 10354 10344 10334 10323 10316 10312 10307 10303
10693 10693 10693 10693 10693 10693 10692 10692 10691 10690 10689 10688 10687 10685 10684 10682 10680 10678 10676 10674 10671 10669 10666 10664 10661 10658 10654 10651 10648 10645 10641 10637 10633 10629 10625 10620 10615 10609 10604 10598 10592 10585 10580 10574 10569 10565 10561 10557 10553 10548 10542 10536 10528 10520 10513 10508 10504 10500 10495 10491 10487 10482 10478 10469 10459 10451 10443 10435 10425 10415 10411 10400 10387 10384 10382 10372 10364 10359 10356 10351 10343 10335 10326 10313 10303 10296 10290 10285
10694 10694 10694 10694 10693 10693 10692 10691 10690 10689 10688 10687 10685 10684 10682 10680 10678 10676 10674 10671 10669 10666 10663 10660 10657 10654 10650 10647 10643 10639 10636 10631 10627 10622 10617 10612 10606 10601 10596 10591 10586 10581 10575 10568 10562 10557 10553 10549 10545 10541 10537 10532 10527 10518 10509 10502 10497 10493 10487 10481 10476 10474 10474 10469 10460 10453 10446 10437 10423 10410 10407 10399 10385 10378 10370 10360 10353 10347 10342 10338 10332 10324 10316 10306 10295 10285 10278 10270
10695 10695 10694 10694 10693 10692 10692 10691 10690 10688 10687 10685 10684 10682 10680 10678 10676 10674 10671 10669 10666 10663 10660 10656 10653 10650 10646 10642 10639 10635 10631 10626 10622 10616 10612 10607 10603 10598 10594 10589 10584 10579 10573 10566 10559 10552 10547 10543 10538 10535 10532 10527 10523 10517 10509 10502 10493 10486 10480 10473 10464 10457 10457 10454 10448 10442 10440 10437 10422 10406 10400 10393 10382 10374 10361 10348 10342 10334 10327 10321 10315 10310 10303 10296 10288 10278 10269 10260
10695 10695 10694 10694 10693 10692 10691 10690 10689 10687 10685 10684 10682 10680 10678 10676 10673 10671 10668 10665 10662 10659 10656 10652 10649 10645 10642 10638 10634 10630 10626 10621 10617 10612 10607 10603 10598 10594 10589 10584 10579 10574 10568 10562 10555 10548 10543 10541 10536 10532 10528 10521 10514 10508 10501 10493 10486 10476 10468 10460 10450 10440 10434 10430 10424 10417 10415 10420 10413 10398 10389 10379 10371 10365 10351 10339 10332 10322 10313 10306 10298 10294 10288 10282 10277 10269 10260 10249
10695 10695 10694 10693 10692 10691 10690 10689 10687 10686 10684 10682 10680 10677 10675 10673 10671 10668 10665 10662 10659 10655 10652 10648 10645 10641 10637 10633 10629 10625 10621 10617 10612 10608 10604 10599 10593 10589 10584 10580 10575 10570 10566 10560 10553 10544 10535 10531 10529 10524 10519 10513 10504 10496 10489 10482 10474 10466 10457 10449 10440 10430 10420 10413 10408 10399 10391 10394 10394 10386 10379 10367 10357 10353 10341 10329 10324 10314 10302 10293 10285 10278 10271 10265 10260 10253 10246 10236
10695 10694 10693 10692 10691 10690 10689 10687 10685 10684 10682 10680 10677 10675 10673 10670 10667 10665 10662 10659 10656 10652 10649 10645 10641 10637 10633 10629 10625 10620 10616 10612 10608 10604 10600 10596 10591 10586 10582 10577 10573 10569 10564 10558 10552 10544 10532 10522 10519 10515 10509 10503 10494 10484 10477 10470 10463 10456 10447 10439 10431 10422 10412 10402 10396 10390 10381 10378 10377 10373 10370 10359 10343 10338 10331 10318 10310 10301 10290 10281 10272 10265 10258 10251 10245 10238 10230 10223
10694 10693 10692 10691 10690 10688 10687 10685 10684 10682 10679 10677 10675 10673 10670 10667 10664 10662 10659 10656 10652 10649 10645 10641 10637 10633 10629 10625 10620 10616 10612 10609 10605 10601 10597 10593 10589 10584 10579 10574 10570 10566 10561 10555 10549 10543 10533 10519 10512 10509 10503 10495 10486 10477 10467 10459 10452 10445 10435 10426 10419 10413 10405 10393 10382 10374 10368 10364 10361 10358 10358 10350 10330 10319 10315 10307 10297 10287 10277 10268 10260 10254 10246 10239 10232 10224 10216 10209
10693 10692 10691 10690 10688 10687 10685 10683 10682 10680 10677 10675 10672 10670 10667 10664 10662 10659 10655 10652 10648 10644 10641 10637 10633 10629 10625 10621 10617 10613 10610 10606 10603 10599 10595 10590 10586 10582 10577 10571 10566 10561 10556 10550 10544 10538 10531 10518 10507 10502 10498 10489 10479 10470 10461 10452 10443 10435 10425 10414 10405 10398 10394 10387 10373 10359 10350 10343 10339 10339 10342 10337 10319 10306 10300 10293 10284 10274 10265 10256 10247 10239 10231 10223 10215 10208 10201 10194
10692 10691 10690 10689 10687 10685 10684 10681 10679 10677 10675 10672 10670 10667 10665 10662 10659 10655 10652 10648 10644 10641 10637 10633 10629 10625 10621 10618 10614 10611 10608 10604 10601 10597 10592 10588 10583 10578 10573 10568 10562 10556 10550 10544 10538 10532 10526 10516 10504 10494 10490 10482 10472 10463 10456 10447 10439 10431 10420 10409 10399 10388 10380 10376 10367 10351 10337 10325 10316 10316 10324 10320 10304 10293 10286 10277 10267 10256 10246 10238 10228 10217 10208 10199 10191 10185 10180 10175
10691 10690 10689 10687 10685 10683 10682 10679 10677 10675 10672 10670 10668 10665 10662 10659 10655 10652 10648 10645 10641 10637 10633 10629 10625 10622 10619 10616 10613 10609 10606 10602 10599 10595 10590 10585 10580 10574 10568 10563 10557 10551 10544 10538 10532 10526 10519 10511 10501 10491 10483 10474 10464 10454 10446 10438 10431 10425 10416 10405 10395 10385 10374 10368 10363 10351 10335 10319 10304 10299 10306 10304 10288 10277 10271 10261 10251 10238 10225 10215 10206 10195 10185 10176 10171 10166 10161 10156
10690 10689 10687 10685 10684 10681 10679 10677 10675 10673 10670 10668 10665 10662 10659 10655 10652 10649 10645 10641 10637 10634 10630 10626 10623 10620 10616 10613 10610 10607 10604 10600 10596 10591 10587 10581 10576 10570 10564 10558 10551 10545 10538 10531 10525 10519 10512 10503 10494 10486 10479 10470 10457 10446 10438 10430 10422 10415 10406 10395 10384 10373 10363 10354 10350 10347 10336 10321 10304 10291 10291 10288 10272 10259 10252 10244 10233 10221 10208 10198 10189 10180 10170 10161 10157 10151 10142 10135
10689 10687 10685 10683 10681 10679 10677 10675 10673 10670 10667 10665 10662 10659 10656 10652 10649 10645 10642 10638 10634 10631 10628 10624 10621 10618 10615 10611 10607 10604 10601 10597 10592 10587 10582 10576 10570 10565 10559 10552 10546 10539 10532 10525 10517 10511 10505 10497 10487 10479 10472 10462 10448 10437 10430 10422 10414 10407 10397 10386 10374 10364 10355 10344 10336 10334 10328 10317 10303 10290 10286 10279 10260 10243 10234 10227 10219 10210 10199 10187 10176 10168 10160 10151 10143 10134 10123 10115
10688 10686 10684 10681 10679 10677 10675 10673 10670 10667 10665 10662 10659 10656 10653 10649 10646 10642 10639 10635 10632 10628 10625 10622 10619 10616 10613 10609 10605 10601 10597 10592 10588 10583 10577 10571 10565 10559 10553 10546 10540 10532 10525 10518 10510 10503 10496 10488 10480 10474 10470 10464 10451 10438 10429 10418 10408 10401 10393 10383 10371 10360 10351 10340 10327 10319 10313 10304 10290 10277 10275 10272 10255 10238 10227 10215 10207 10199 10189 10176 10164 10157 10154 10145 10133 10120 10109 10102
10686 10684 10682 10680 10678 10675 10673 10670 10667 10665 10662 10659 10656 10653 10650 10646 10643 10639 10636 10633 10630 10627 10624 10621 10617 10614 10611 10607 10603 10599 10594 10589 10584 10578 10572 10566 10559 10553 10547 10540 10533 10525 10518 10510 10502 10493 10486 10476 10466 10458 10457 10460 10454 10442 10435 10424 10408 10395 10384 10374 10364 10352 10342 10331 10319 10310 10304 10298 10284 10263 10258 10262 10250 10233 10221 10208 10196 10188 10176 10163 10152 10146 10141 10133 10122 10110 10101 10094
10685 10682 10680 10678 10675 10673 10670 10668 10665 10663 10660 10657 10654 10650 10647 10644 10640 10637 10634 10631 10629 10625 10622 10619 10615 10612 10608 10605 10600 10596 10591 10585 10579 10573 10567 10560 10554 10547 10540 10534 10526 10519 10511 10504 10495 10486 10477 10468 10455 10440 10430 10430 10427 10418 10412 10408 10398 10386 10375 10363 10353 10344 10334 10323 10312 10302 10292 10290 10283 10260 10244 10247 10242 10227 10213 10200 10188 10178 10165 10152 10144 10139 10132 10121 10110 10100 10093 10087
10683 10681 10678 10676 10674 10672 10669 10666 10664 10661 10658 10655 10651 10648 10644 10641 10638 10635 10633 10630 10627 10624 10620 10617 10613 10609 10605 10601 10596 10591 10585 10580 10573 10567 10561 10554 10548 10541 10534 10527 10520 10513 10506 10498 10490 10482 10472 10463 10452 10436 10420 10414 10410 10400 10392 10388 10382 10375 10365 10354 10343 10333 10323 10312 10301 10290 10278 10274 10275 10261 10238 10229 10226 10217 10202 10189 10177 10167 10152 10139 10136 10135 10126 10115 10105 10095 10086 10079
10681 10679 10677 10675 10673 10671 10668 10665 10662 10659 10655 10652 10649 10646 10642 10639 10636 10634 10631 10628 10626 10622 10619 10615 10611 10606 10601 10596 10591 10585 10579 10574 10567 10561 10555 10548 10542 10535 10528 10521 10514 10507 10500 10492 10484 10477 10468 10460 10452 10439 10422 10412 10407 10398 10388 10381 10373 10366 10357 10346 10336 10326 10316 10305 10292 10280 10268 10259 10257 10253 10237 10220 10211 10203 10189 10172 10160 10150 10137 10128 10128 10127 10118 10107 10098 10089 10081 10073
10681 10679 10676 10674 10672 10669 10667 10663 10660 10657 10653 10650 10647 10644 10641 10638 10635 10632 10630 10627 10624 10620 10617 10612 10608 10604 10599 10593 10588 10582 10575 10568 10562 10555 10549 10543 10536 10529 10522 10516 10508 10501 10494 10486 10479 10471 10463 10455 10449 10441 10426 10413 10405 10395 10384 10377 10369 10359 10351 10340 10330 10320 10308 10297 10285 10273 10264 10253 10243 10238 10231 10214 10198 10188 10177 10162 10149 10137 10123 10117 10118 10114 10103 10095 10088 10079 10071 10064
10680 10678 10675 10673 10671 10668 10665 10661 10658 10654 10651 10648 10645 10642 10639 10637 10634 10632 10629 10626 10622 10618 10614 10610 10605 10600 10595 10590 10585 10579 10573 10567 10560 10552 10545 10538 10531 10524 10517 10510 10503 10496 10488 10481 10472 10464 10457 10450 10444 10439 10428 10413 10403 10392 10380 10372 10364 10355 10346 10335 10326 10316 10301 10288 10279 10269 10262 10255 10243 10231 10224 10212 10193 10179 10168 10154 10142 10128 10109 10102 10105 10099 10089 10084 10078 10070 10062 10055
10679 10677 10674 10672 10669 10666 10663 10659 10656 10653 10650 10647 10644 10641 10638 10636 10633 10630 10627 10624 10620 10616 10612 10607 10602 10597 10592 10587 10581 10575 10569 10563 10556 10549 10541 10534 10526 10519 10512 10504 10496 10489 10481 10473 10465 10457 10451 10444 10437 10433 10425 10413 10402 10389 10377 10369 10361 10351 10341 10332 10323 10316 10303 10287 10275 10264 10256 10253 10245 10230 10218 10209 10192 10174 10159 10142 10126 10113 10096 10090 10094 10090 10080 10075 10070 10063 10055 10047
10678 10676 10674 10671 10668 10664 10661 10658 10654 10652 10649 10646 10643 10640 10637 10635 10632 10629 10626 10622 10618 10614 10609 10604 10599 10594 10589 10583 10577 10570 10563 10556 10550 10543 10536 10529 10521 10514 10507 10499 10491 10483 10474 10465 10458 10451 10444 10438 10430 10425 10419 10410 10400 10388 10375 10366 10359 10348 10337 10328 10321 10313 10304 10288 10269 10254 10244 10236 10231 10222 10207 10194 10180 10164 10152 10138 10121 10105 10091 10085 10088 10084 10075 10069 10063 10056 10050 10041
10678 10675 10673 10670 10666 10663 10659 10656 10654 10651 10648 10645 10642 10639 10636 10633 10630 10627 10624 10620 10616 10612 10607 10602 10597 10591 10585 10579 10572 10565 10558 10551 10544 10537 10530 10523 10516 10508 10501 10494 10486 10478 10469 10461 10453 10446 10439 10431 10423 10417 10410 10402 10394 10384 10371 10359 10352 10344 10331 10320 10312 10306 10301 10289 10266 10247 10235 10219 10208 10202 10192 10183 10174 10159 10147 10138 10123 10102 10084 10077 10078 10074 10068 10063 10055 10048 10043 10036